Find Starlink 6216

NORAD ID: 56893 Int'l Des: 2023-083 Owner: SPXS Country: US Constellation: starlink operational
LEOCIRCULAR

現在のビュー

3D地球を読み込み中...

About Starlink 6216

Starlink 6216 (NORAD 56893) is a starlink constellation satellite (v1.5) launched Jun 12, 2023 by SPXS of US. It operates in LEO, CIRCULAR orbit with a mass of 305.00 kg.

次回通過

Passes for default location (London). Set your location on the main map for personalized predictions.

高度履歴

Loading altitude history...

軌道要素

1 56893U 23083T 26263.87488869 .00000150 00000-0 14975-4 0 9990
2 56893 43.0013 62.6992 0001098 270.8684 89.2042 15.27579395181605
Epoch: Sep 20, 2026 • Age: 14 hours

現在のステータス

高度 485.3 km
遠地点 / 近地点 N/A
速度 7.63 km/s
衛星直下点 36.05°N, 60.81°W
打ち上げ日 Jun 12, 2023
運用期間 3.2 years
タイプ internet

技術仕様

分類 Payload
質量 305.00 kg
乾燥質量 290.00 kg
長さ 0.20 m
スパン 9.00 m
形状 ? Box + pan
製造者 SPXS
バスタイプ Starlink
フェーズステータス In Orbit
所有者/国 SPXS/US

Most Searched